www.pogodaiklimat.ru

Погода и климат >> Архив погоды >> Мадагаскар >> Фарафангана


ПОГОДА в Фарафангане

  • Прогноз погоды в Фарафангане
  • Монитор погоды в Фарафангане

АРХИВ ПОГОДЫ в Фарафангане

Время (UTC), дата Ветер
(напр.,м/с)
 
Видим.   Явления Облачность Т
(С)
Тd
(С)
f
(%)
Тe
(С)
Тes
(С)
Комфортность P
(гПа)
Po
(гПа)
Тmin
(С)
Tmax
(С)
R
(мм)
R24
(мм)
S
(см)
03 13.09 штиль 0 30 км 1/1 600 м
[Cu Sc]
1021.7 1021.0
06 13.09 0 н/о 1021.7
09 13.09 СВ 3 30 км 3/3 600 м
[Cu Sc]
1020.4 1019.7
12 13.09 СВ 4 35 км 1/1 600 м
[Cu Sc]
1018.4 1017.7
15 13.09 СВ 4 30 км 1/1 600 м
[Cu Sc]
1018.6 1017.9
00 14.09 штиль 0 25 км 9/9 500 м
[Cu Sc]
1018.0 1017.3
03 14.09 штиль 0 25 км 9/9 500 м
[Cu Sc]
1018.7 1018.0
06 14.09 СВ 3 35 км 1/1 600 м
[Cu Sc]
1019.7 1019.0
09 14.09 СВ 2 30 км 1/1 600 м
[Cu Sc]
1019.3 1018.6 716
12 14.09 СВ 6 35 км 1/1 500 м
[Cu Sc]
1017.4 1016.7
15 14.09 СВ 6 30 км 4/4 500 м
[Cu Sc]
1017.4 1016.7
00 15.09 штиль 0 25 км 9/9 500 м
[Cu Sc]
1018.3 1017.6
03 15.09 штиль 0 25 км 9/9 500 м
[Cu Sc]
1018.0 1017.3
06 15.09 штиль 0 30 км 1/1 500 м
[Cu Sc]
1019.6 1018.9
09 15.09 В 3 35 км 1/1 600 м
[Cu Sc]
1018.4 1017.7
12 15.09 В 6 35 км ясно 1017.3 1016.6
15 15.09 штиль 0 35 км 1/1 500 м
[Cu Sc]
1017.7 1017.0
00 16.09 штиль 0 20 км осадки на расстоянии 9/9 500 м
[Cu Sc]
1019.5 1018.8
03 16.09 штиль 0 25 км осадки на расстоянии 9/9 500 м
[Cu Sc]
1019.6 1018.9
06 16.09 штиль 0 30 км 8/8 600 м
[Cu Sc]
1019.3 1018.6
09 16.09 С 4 25 км осадки на расстоянии 6/6 500 м
[Cu Sc]
1018.0 1017.3
12 16.09 В 4 30 км 4/4 600 м
[Cu Sc]
1017.0 1016.3
15 16.09 СВ 4 25 км осадки на расстоянии 9/9 500 м
[Cu Sc]
1018.2 1017.5
00 17.09 ЮЗ 4 25 км осадки на расстоянии 9/9 500 м
[Cu Sc]
1018.8 1018.1 7
03 17.09 ЮЗ 4 25 км осадки на расстоянии 9/9 500 м
[Cu Sc]
1019.2 1018.5 7
06 17.09 ЮЗ 3 25 км осадки на расстоянии 10/10 500 м
[Cu Sc]
1020.8 1020.1 7
09 17.09 ЮЗ 3 25 км осадки на расстоянии 10/10 500 м
[Cu Sc]
1019.7 1019.0
12 17.09 ЮЗ 3 25 км осадки на расстоянии 9/9 500 м
[Cu Sc]
1018.4 1017.7
15 17.09 ЮЗ 3 25 км осадки на расстоянии 9/9 500 м
[Cu Sc]
1019.1 1018.4 0.7
00 18.09 ЮЗ 4 20 км осадки на расстоянии 10/10 500 м
[Cu Sc]
1019.5 1018.8 8
03 18.09 ЮЗ 4 20 км осадки на расстоянии 10/10 500 м
[Cu Sc]
1019.6 1018.9 8
06 18.09 ЮЗ 3 25 км осадки на расстоянии 10/10 500 м
[Cu Sc]
1020.9 1020.2 11
09 18.09 ЮЗ 4 25 км осадки на расстоянии 9/9 500 м
[Cu Sc]
1019.8 1019.1 0.5
12 18.09 ЮЗ 3 25 км осадки на расстоянии 9/9 500 м
[Cu Sc]
1018.9 1018.2
15 18.09 З 3 25 км осадки на расстоянии 9/9 500 м
[Cu Sc]
1020.2 1019.5
00 19.09 25 км осадки на расстоянии н/о 1020.2 1019.5 2
03 19.09 ЮЗ 1 25 км осадки на расстоянии 9/9 500 м
[Cu Sc]
1020.3 1019.6 2
06 19.09 ЮЗ 3 30 км 4/4 600 м
[Cu Sc]
1020.4 1019.7 2
09 19.09 ЮЗ 3 30 км 4/4 600 м
[Cu Sc]
0.0 -5 +4 1020.4 1019.7 2
12 19.09 В 4 30 км 4/4 600 м
[Cu Sc]
1019.1 1018.4
15 19.09 СВ 4 25 км осадки на расстоянии 9/9 500 м
[]
1019.6 1018.9

 

Местоположение метеостанции Фарафангана (Мадагаскар): широта -22.80 долгота 47.83 высота над уровнем моря 6 м.

В архиве по умолчанию представлена погода в Фарафангане за последнюю неделю. Архивные данные за месяц целиком и за предыдущие месяцы, начиная с января 2011 года, Вы можете получить, выбрав интересующий диапазон дат из раскрывающегося списка и нажав кнопку "Ввод!".


*Определитесь, кто Вы:
робот инопланетянин человек

Внимание! Время в таблицах - всемирное. Для получения местного времени необходимо прибавить поправку, которая равна 3 ч.

Смотрите также архив погоды в соседних городах и на ближайших метеорологических станциях:

Погода в Манандзари (Мадагаскар) (145 км)
Погода в Фианаранцуа (Мадагаскар) (168 км)
Погода в Толанаро (Мадагаскар) (264 км)
Погода в Анцирабе (Мадагаскар) (342 км)
Погода в Мааноро (Мадагаскар) (345 км)
Погода в Раноайре (Мадагаскар) (393 км)
Погода в Тулиаре (Мадагаскар) (424 км)
Погода в Антананариву (Мадагаскар) (438 км)
Погода в Антананариву (Мадагаскар) (446 км)
Погода в Мурундаве (Мадагаскар) (459 км)

Пояснения к столбцам:

Ветер - указаны скорость ветра в м/с - средняя за 10 мин, порывы в срок и между сроками (в фигурных скобках) и направление, откуда дует ветер: С - северный, СВ - северо-восточный, В - восточный, ЮВ - юго-восточный, Ю - южный, ЮЗ - юго-западный, З - западный, СЗ - северо-западный.
Видимость - горизонтальная дальность видимости в метрах или километрах. При видимости от 1 до 10 км при отсутствии осадков обычно наблюдается дымка, при ухудшении видимости до 1 км и менее - туман. В сухую погоду видимость может ухудшаться дымом, пылью или мглою.
Явления - указаны атмосферные явления, наблюдавшиеся в срок или в последний час перед сроком; фигурными скобками обозначены явления, наблюдавшиеся между сроками (за 1-3 часа до срока); квадратными скобками обозначены град или гололедные отложения с указанием их диаметра в мм.
Облачность - указаны через наклонную черту общая и нижняя облачность в баллах и высота нижней границы облаков в метрах; квадратными скобками обозначены формы облаков: Ci - перистые, Cs - перисто-слоистые, Cc - перисто-кучевые, Ac - высококучевые, As - высокослоистые, Sc - слоисто-кучевые, Ns - слоисто-дождевые, Cu - кучевые, Cb - кучево-дождевые. Подробнее классификацию облаков см. в Атласе облаков (PDF).
T - Температура воздуха - температура, измеренная на высоте 2 м над землей.
Td - Температура точки росы - температура, при понижении до которой содержащийся в воздухе водяной пар достигнет насыщения.
f - Относительная влажность воздуха - влажноcть воздуха, измеренная на высоте 2 м над землей.
Te - Эффективная температура - температура, которую ощущает одетый по сезону человек в тени. Характеристика душности погоды. При расчете учитывается влияние влажности воздуха и скорости ветра на теплоощущения человека.
Tes - Эффективная температура на солнце - температура, которую ощущает человек, с поправкой на солнечный нагрев. Характеристика знойности погоды. Зависит от высоты солнца над горизонтом, облачности и скорости ветра. Ночью, в пасмурную погоду, а также при ветре 12 м/с и более поправка равна нулю.
P - Атмосферное давление - приведенное к уровню моря атмосферное давление.
Po - Атмосферное давление - измеренное на уровне метеостанции атмосферное давление.
Tmin - Минимальная температура - минимум температуры воздуха на высоте 2 м над землей.
Tmax - Максимальная температура - максимум температуры воздуха на высоте 2 м над землей.
R - Количество осадков - Количество выпавших осадков за период времени, мм. При наведении курсора мыши на число - период времени, за который выпало указанное количество осадков.
R24 - Количество осадков - Количество выпавших осадков за 24 часа, мм.
S - Снежный покров - Высота снежного покрова, см. При наведении курсора мыши на число - состояние снежного покрова и степень покрытия местности в баллах.